RYR61LJ LEPA-LEZL

Flight info

Callsign RYR61LJ
Flight time 1h 16m
Altitude 37000
Route EPAMA N733 VLC M985 MAMIS
Aircraft A320/M-SDE3FGHIRWY/LB1

Departure

Time 2026-05-01 10:11
Airport Palma de Mallorca Airport (LEPA)

Arrival

Time 2026-05-01 11:28
Airport Seville Airport (LEZL)
Time Latitude Longitude Altitude Speed Heading
2026-05-01 09:22 39.55052 2.73684 36 ft 0 kts 239°
2026-05-01 10:01 39.55063 2.73708 38 ft 4 kts 233°
2026-05-01 10:01 39.55081 2.73734 37 ft 4 kts 223°
2026-05-01 10:01 39.55102 2.73756 37 ft 4 kts 210°
2026-05-01 10:02 39.55126 2.73769 35 ft 4 kts 186°
2026-05-01 10:02 39.55144 2.73767 34 ft 0 kts 149°
2026-05-01 10:05 39.55141 2.73769 34 ft 2 kts 149°
2026-05-01 10:06 39.55110 2.73794 36 ft 8 kts 149°
2026-05-01 10:06 39.55045 2.73845 38 ft 13 kts 149°
2026-05-01 10:06 39.54960 2.73912 38 ft 14 kts 148°
2026-05-01 10:06 39.54876 2.73977 37 ft 12 kts 149°
2026-05-01 10:07 39.54804 2.73968 37 ft 11 kts 230°
2026-05-01 10:07 39.54743 2.73956 38 ft 10 kts 163°
2026-05-01 10:07 39.54683 2.73905 38 ft 12 kts 240°
2026-05-01 10:07 39.54637 2.73805 38 ft 14 kts 238°
2026-05-01 10:08 39.54521 2.73562 38 ft 18 kts 238°
2026-05-01 10:08 39.54454 2.73419 37 ft 19 kts 238°
2026-05-01 10:08 39.54398 2.73299 38 ft 14 kts 238°
2026-05-01 10:09 39.54342 2.73182 38 ft 16 kts 238°
2026-05-01 10:09 39.54287 2.73066 38 ft 12 kts 236°
2026-05-01 10:09 39.54225 2.73070 37 ft 11 kts 131°
2026-05-01 10:09 39.54212 2.73177 38 ft 13 kts 90°
2026-05-01 10:10 39.54209 2.73294 38 ft 13 kts 101°
2026-05-01 10:10 39.54217 2.73363 38 ft 0 kts 58°
2026-05-01 10:10 39.54427 2.73811 38 ft 88 kts 58°
2026-05-01 10:11 39.54845 2.74693 39 ft 139 kts 58°
2026-05-01 10:11 39.55384 2.75827 453 ft 150 kts 58°
2026-05-01 10:11 39.55925 2.77007 1071 ft 155 kts 61°
2026-05-01 10:11 39.56489 2.78256 1525 ft 169 kts 60°
2026-05-01 10:12 39.57124 2.79655 1864 ft 191 kts 60°
2026-05-01 10:12 39.57824 2.81199 2435 ft 204 kts 60°
2026-05-01 10:12 39.59281 2.84401 4142 ft 210 kts 61°
2026-05-01 10:13 39.60031 2.86044 5012 ft 213 kts 62°
2026-05-01 10:13 39.60794 2.87715 5829 ft 217 kts 62°
2026-05-01 10:13 39.61592 2.89402 6593 ft 222 kts 54°
2026-05-01 10:14 39.64430 2.90837 7945 ft 243 kts 347°
2026-05-01 10:14 39.65917 2.89818 8617 ft 247 kts 312°
2026-05-01 10:14 39.66775 2.87917 9398 ft 245 kts 289°
2026-05-01 10:14 39.67344 2.85808 10266 ft 244 kts 284°
2026-05-01 10:15 39.67794 2.83724 11055 ft 243 kts 281°
2026-05-01 10:15 39.68153 2.81549 11808 ft 244 kts 278°
2026-05-01 10:15 39.68395 2.79365 12535 ft 246 kts 275°
2026-05-01 10:15 39.68529 2.77169 13212 ft 249 kts 273°
2026-05-01 10:16 39.68760 2.74901 13949 ft 252 kts 281°
2026-05-01 10:16 39.69253 2.72629 14212 ft 273 kts 290°
2026-05-01 10:16 39.70897 2.67725 14509 ft 319 kts 293°
2026-05-01 10:17 39.71823 2.65007 14630 ft 340 kts 293°
2026-05-01 10:17 39.73788 2.59235 15517 ft 357 kts 293°
2026-05-01 10:17 39.74794 2.56272 16095 ft 361 kts 293°
2026-05-01 10:18 39.76832 2.50244 17312 ft 367 kts 293°
2026-05-01 10:18 39.77862 2.47200 17936 ft 369 kts 293°
2026-05-01 10:18 39.78902 2.44123 18486 ft 374 kts 293°
2026-05-01 10:19 39.79967 2.40965 19010 ft 378 kts 293°
2026-05-01 10:19 39.81004 2.37861 19565 ft 380 kts 291°
2026-05-01 10:19 39.81754 2.34563 20144 ft 382 kts 280°
2026-05-01 10:20 39.81668 2.27659 21324 ft 386 kts 257°
2026-05-01 10:20 39.80925 2.24303 21916 ft 388 kts 253°
2026-05-01 10:20 39.80135 2.20936 22425 ft 391 kts 253°
2026-05-01 10:20 39.79337 2.17540 22914 ft 394 kts 253°
2026-05-01 10:21 39.78533 2.14124 23450 ft 396 kts 253°
2026-05-01 10:21 39.76902 2.07226 24316 ft 402 kts 253°
2026-05-01 10:21 39.76078 2.03744 24730 ft 404 kts 253°
2026-05-01 10:22 39.74419 1.96731 25558 ft 408 kts 252°
2026-05-01 10:22 39.72740 1.89650 26351 ft 412 kts 252°
2026-05-01 10:23 39.71890 1.86092 26747 ft 413 kts 252°
2026-05-01 10:23 39.70181 1.78934 27505 ft 417 kts 252°
2026-05-01 10:23 39.69316 1.75320 27879 ft 419 kts 252°
2026-05-01 10:24 39.67571 1.68063 28622 ft 423 kts 252°
2026-05-01 10:24 39.65810 1.60735 29340 ft 427 kts 252°
2026-05-01 10:25 39.64031 1.53338 30050 ft 431 kts 252°
2026-05-01 10:25 39.62241 1.45943 30774 ft 432 kts 251°
2026-05-01 10:26 39.61327 1.42188 31197 ft 430 kts 251°
2026-05-01 10:26 39.60509 1.38459 31611 ft 430 kts 257°
2026-05-01 10:26 39.59913 1.30798 32434 ft 430 kts 264°
2026-05-01 10:27 39.59490 1.23089 33275 ft 428 kts 264°
2026-05-01 10:27 39.59055 1.15370 34138 ft 426 kts 263°
2026-05-01 10:28 39.58842 1.11603 34503 ft 425 kts 263°
2026-05-01 10:28 39.58400 1.03968 35171 ft 424 kts 263°
2026-05-01 10:28 39.58177 1.00159 35496 ft 424 kts 263°
2026-05-01 10:29 39.57726 0.92546 36107 ft 423 kts 264°
2026-05-01 10:29 39.57501 0.88746 36397 ft 423 kts 264°
2026-05-01 10:30 39.57047 0.81155 36951 ft 422 kts 264°
2026-05-01 10:30 39.56589 0.73542 37217 ft 426 kts 264°
2026-05-01 10:31 39.55645 0.58151 37219 ft 429 kts 264°
2026-05-01 10:32 39.54927 0.46597 37218 ft 429 kts 264°
2026-05-01 10:33 39.53948 0.31186 37230 ft 429 kts 264°
2026-05-01 10:34 39.53201 0.19616 37238 ft 430 kts 264°
2026-05-01 10:34 39.52699 0.11955 37244 ft 430 kts 264°
2026-05-01 10:35 39.51932 0.00387 37244 ft 430 kts 264°
2026-05-01 10:35 39.51411 -0.07317 37252 ft 429 kts 264°
2026-05-01 10:36 39.50627 -0.18842 37260 ft 428 kts 264°
2026-05-01 10:37 39.50099 -0.26504 37267 ft 427 kts 264°
2026-05-01 10:37 39.49296 -0.37998 37269 ft 427 kts 264°
2026-05-01 10:38 39.48522 -0.45601 37270 ft 426 kts 255°
2026-05-01 10:38 39.46070 -0.52546 37264 ft 427 kts 236°
2026-05-01 10:39 39.42485 -0.58687 37268 ft 428 kts 234°
2026-05-01 10:39 39.38883 -0.64821 37260 ft 428 kts 234°
2026-05-01 10:40 39.35284 -0.70952 37258 ft 428 kts 234°
2026-05-01 10:40 39.31682 -0.77075 37245 ft 428 kts 235°
2026-05-01 10:41 39.28064 -0.83201 37252 ft 429 kts 235°
2026-05-01 10:42 39.22634 -0.92383 37260 ft 429 kts 235°
2026-05-01 10:42 39.19032 -0.98446 37260 ft 429 kts 235°
2026-05-01 10:43 39.15406 -1.04551 37255 ft 429 kts 235°
2026-05-01 10:43 39.11787 -1.10650 37255 ft 429 kts 235°
2026-05-01 10:44 39.08157 -1.16738 37255 ft 428 kts 235°
2026-05-01 10:44 39.04525 -1.22810 37262 ft 428 kts 235°
2026-05-01 10:45 39.00894 -1.28868 37260 ft 427 kts 235°
2026-05-01 10:45 38.97273 -1.34917 37259 ft 427 kts 235°
2026-05-01 10:46 38.93642 -1.40960 37258 ft 427 kts 235°
2026-05-01 10:46 38.90010 -1.46989 37256 ft 427 kts 235°
2026-05-01 10:47 38.86379 -1.53019 37242 ft 427 kts 235°
2026-05-01 10:47 38.82765 -1.58996 37249 ft 427 kts 234°
2026-05-01 10:48 38.79127 -1.65003 37264 ft 427 kts 234°
2026-05-01 10:48 38.75485 -1.71014 37255 ft 427 kts 234°
2026-05-01 10:49 38.71840 -1.77011 37247 ft 427 kts 234°
2026-05-01 10:49 38.68193 -1.83004 37254 ft 427 kts 234°
2026-05-01 10:50 38.64541 -1.88991 37245 ft 427 kts 234°
2026-05-01 10:50 38.60882 -1.94968 37242 ft 427 kts 234°
2026-05-01 10:51 38.57223 -2.00939 37238 ft 427 kts 234°
2026-05-01 10:51 38.53565 -2.06904 37245 ft 426 kts 234°
2026-05-01 10:52 38.49908 -2.12864 37251 ft 426 kts 234°
2026-05-01 10:52 38.46868 -2.17810 37235 ft 426 kts 234°
2026-05-01 10:53 38.43198 -2.23750 37236 ft 426 kts 234°
2026-05-01 10:53 38.39525 -2.29691 37221 ft 426 kts 234°
2026-05-01 10:54 38.35826 -2.35594 37229 ft 427 kts 230°
2026-05-01 10:54 38.31753 -2.41110 37226 ft 428 kts 229°
2026-05-01 10:55 38.27648 -2.46613 37218 ft 428 kts 229°
2026-05-01 10:55 38.23547 -2.52101 37227 ft 428 kts 229°
2026-05-01 10:56 38.19443 -2.57597 37223 ft 428 kts 229°
2026-05-01 10:56 38.15337 -2.63088 37191 ft 428 kts 229°
2026-05-01 10:57 38.11257 -2.68525 37205 ft 428 kts 230°
2026-05-01 10:57 38.07150 -2.73997 37211 ft 428 kts 230°
2026-05-01 10:58 38.03045 -2.79462 37205 ft 428 kts 230°
2026-05-01 10:58 37.98932 -2.84905 37206 ft 428 kts 230°
2026-05-01 10:59 37.94820 -2.90349 37197 ft 427 kts 230°
2026-05-01 10:59 37.90712 -2.95795 37184 ft 427 kts 230°
2026-05-01 11:00 37.86598 -3.01225 37192 ft 427 kts 230°
2026-05-01 11:00 37.82485 -3.06644 37181 ft 427 kts 231°
2026-05-01 11:01 37.78371 -3.12051 37191 ft 426 kts 231°
2026-05-01 11:01 37.74827 -3.17914 37186 ft 416 kts 247°
2026-05-01 11:02 37.73139 -3.24785 37175 ft 408 kts 265°
2026-05-01 11:02 37.72733 -3.31913 37177 ft 407 kts 268°
2026-05-01 11:03 37.72333 -3.39001 37169 ft 407 kts 268°
2026-05-01 11:03 37.71932 -3.46141 37161 ft 407 kts 268°
2026-05-01 11:04 37.71533 -3.53275 37171 ft 407 kts 268°
2026-05-01 11:04 37.71126 -3.60409 37175 ft 407 kts 268°
2026-05-01 11:05 37.70713 -3.67537 37172 ft 407 kts 268°
2026-05-01 11:05 37.70301 -3.74654 37181 ft 406 kts 268°
2026-05-01 11:06 37.69885 -3.81741 37179 ft 404 kts 268°
2026-05-01 11:06 37.69676 -3.85275 36823 ft 405 kts 267°
2026-05-01 11:06 37.69466 -3.88849 35894 ft 411 kts 267°
2026-05-01 11:07 37.69036 -3.96097 34274 ft 416 kts 267°
2026-05-01 11:07 37.68814 -3.99749 33398 ft 418 kts 267°
2026-05-01 11:07 37.68590 -4.03412 32479 ft 420 kts 267°
2026-05-01 11:07 37.68364 -4.07098 31541 ft 422 kts 267°
2026-05-01 11:08 37.68141 -4.10799 30583 ft 424 kts 267°
2026-05-01 11:08 37.67914 -4.14513 29483 ft 427 kts 267°
2026-05-01 11:08 37.67451 -4.21894 28414 ft 410 kts 267°
2026-05-01 11:09 37.67224 -4.25420 28142 ft 397 kts 267°
2026-05-01 11:09 37.67005 -4.28863 27708 ft 390 kts 267°
2026-05-01 11:09 37.66794 -4.32255 27227 ft 385 kts 267°
2026-05-01 11:10 37.66376 -4.38907 26304 ft 376 kts 266°
2026-05-01 11:10 37.66166 -4.42180 25868 ft 373 kts 266°
2026-05-01 11:10 37.65960 -4.45427 25435 ft 370 kts 266°
2026-05-01 11:10 37.65754 -4.48651 25017 ft 368 kts 266°
2026-05-01 11:11 37.65547 -4.51859 24592 ft 366 kts 266°
2026-05-01 11:11 37.65337 -4.55053 24171 ft 365 kts 266°
2026-05-01 11:11 37.65127 -4.58246 23760 ft 364 kts 266°
2026-05-01 11:11 37.64919 -4.61418 23297 ft 362 kts 266°
2026-05-01 11:12 37.64716 -4.64525 22889 ft 359 kts 266°
2026-05-01 11:12 37.64510 -4.67646 22476 ft 355 kts 266°
2026-05-01 11:12 37.64304 -4.70734 22058 ft 351 kts 266°
2026-05-01 11:12 37.64100 -4.73789 21639 ft 348 kts 266°
2026-05-01 11:13 37.63898 -4.76820 21211 ft 345 kts 266°
2026-05-01 11:13 37.63696 -4.79828 20778 ft 343 kts 265°
2026-05-01 11:13 37.63494 -4.82807 20350 ft 340 kts 265°
2026-05-01 11:13 37.63293 -4.85776 19908 ft 338 kts 265°
2026-05-01 11:14 37.63094 -4.88722 19474 ft 336 kts 265°
2026-05-01 11:14 37.62895 -4.91657 19030 ft 335 kts 265°
2026-05-01 11:14 37.62696 -4.94583 18587 ft 334 kts 265°
2026-05-01 11:14 37.62497 -4.97500 18106 ft 333 kts 265°
2026-05-01 11:15 37.62297 -5.00393 17663 ft 330 kts 265°
2026-05-01 11:15 37.62098 -5.03267 17213 ft 328 kts 265°
2026-05-01 11:15 37.61899 -5.06120 16772 ft 326 kts 265°
2026-05-01 11:15 37.61700 -5.08959 16335 ft 324 kts 265°
2026-05-01 11:16 37.61502 -5.11784 15897 ft 322 kts 265°
2026-05-01 11:16 37.61304 -5.14595 15466 ft 321 kts 265°
2026-05-01 11:16 37.61105 -5.17399 15022 ft 321 kts 264°
2026-05-01 11:16 37.60906 -5.20193 14591 ft 320 kts 264°
2026-05-01 11:17 37.60708 -5.22986 14139 ft 319 kts 265°
2026-05-01 11:17 37.60730 -5.25780 13656 ft 320 kts 276°
2026-05-01 11:17 37.61175 -5.28533 13184 ft 320 kts 282°
2026-05-01 11:17 37.61688 -5.31261 12721 ft 319 kts 282°
2026-05-01 11:18 37.62195 -5.33983 12265 ft 318 kts 281°
2026-05-01 11:18 37.62690 -5.36662 11817 ft 318 kts 281°
2026-05-01 11:18 37.63194 -5.39405 11371 ft 317 kts 281°
2026-05-01 11:18 37.63685 -5.42079 10916 ft 317 kts 281°
2026-05-01 11:19 37.64180 -5.44783 10481 ft 316 kts 281°
2026-05-01 11:19 37.64645 -5.47449 10346 ft 305 kts 276°
2026-05-01 11:19 37.64622 -5.50049 10219 ft 291 kts 257°
2026-05-01 11:19 37.63977 -5.52409 10076 ft 280 kts 240°
2026-05-01 11:20 37.62835 -5.54370 9748 ft 277 kts 223°
2026-05-01 11:20 37.61414 -5.56004 9399 ft 276 kts 221°
2026-05-01 11:20 37.59992 -5.57621 9011 ft 273 kts 221°
2026-05-01 11:20 37.58606 -5.59201 8576 ft 265 kts 221°
2026-05-01 11:21 37.57255 -5.60740 8111 ft 259 kts 221°
2026-05-01 11:21 37.55933 -5.62248 7679 ft 253 kts 221°
2026-05-01 11:21 37.54601 -5.63658 7250 ft 247 kts 208°
2026-05-01 11:21 37.52983 -5.64147 6867 ft 238 kts 175°
2026-05-01 11:22 37.51445 -5.63511 6511 ft 233 kts 148°
2026-05-01 11:22 37.50145 -5.62324 6138 ft 232 kts 148°
2026-05-01 11:22 37.48764 -5.61291 5744 ft 229 kts 155°
2026-05-01 11:22 37.47325 -5.60493 5368 ft 223 kts 161°
2026-05-01 11:23 37.45862 -5.59929 5004 ft 217 kts 168°
2026-05-01 11:23 37.44390 -5.59865 4620 ft 211 kts 195°
2026-05-01 11:23 37.43128 -5.60805 4270 ft 217 kts 224°
2026-05-01 11:23 37.42233 -5.62343 3960 ft 220 kts 242°
2026-05-01 11:24 37.41830 -5.64197 3682 ft 223 kts 264°
2026-05-01 11:24 37.41816 -5.66155 3398 ft 225 kts 268°
2026-05-01 11:24 37.41837 -5.70115 2781 ft 223 kts 268°
2026-05-01 11:25 37.41835 -5.71983 2502 ft 210 kts 268°
2026-05-01 11:25 37.41829 -5.75428 1993 ft 184 kts 268°
2026-05-01 11:25 37.41826 -5.76971 1746 ft 170 kts 268°
2026-05-01 11:26 37.41823 -5.78431 1527 ft 165 kts 267°
2026-05-01 11:26 37.41817 -5.81187 1101 ft 145 kts 268°
2026-05-01 11:26 37.41814 -5.82428 922 ft 139 kts 268°
2026-05-01 11:27 37.41811 -5.83642 741 ft 139 kts 268°
2026-05-01 11:27 37.41807 -5.84853 566 ft 139 kts 269°
2026-05-01 11:27 37.41804 -5.86063 366 ft 138 kts 271°
2026-05-01 11:27 37.41799 -5.87271 191 ft 138 kts 271°
2026-05-01 11:28 37.41799 -5.88440 110 ft 122 kts 270°
2026-05-01 11:28 37.41796 -5.89208 96 ft 47 kts 269°
2026-05-01 11:28 37.41794 -5.89551 94 ft 26 kts 269°
2026-05-01 11:29 37.41855 -5.89794 97 ft 11 kts 320°
2026-05-01 11:29 37.41930 -5.89846 94 ft 14 kts 334°
2026-05-01 11:29 37.42052 -5.89937 95 ft 8 kts 292°
2026-05-01 11:30 37.42050 -5.90010 95 ft 8 kts 262°
2026-05-01 11:30 37.42047 -5.90082 95 ft 8 kts 268°
2026-05-01 11:30 37.42068 -5.90122 95 ft 6 kts 339°
2026-05-01 11:30 37.42104 -5.90125 94 ft 2 kts 359°
2026-05-01 11:31 37.42112 -5.90125 94 ft 0 kts 359°